This is the latest recevied weather packets stored in our database for station/object WY7ATH-2. If no packets are shown the sender has not sent any weather packets the latest 10 day(s).
| Time | Temp. | Humidity | Pressure | Rain* | Wind** | Luminosity | Snow |
|---|---|---|---|---|---|---|---|
| 1788550795 | 28.33° C | - | - | 31.24 mm | 0 m/s | - | - |
| 1788550197 | 27.22° C | - | - | 31.24 mm | 0.89 m/s, 266° | - | - |
| 1788549600 | 28.33° C | - | - | 31.24 mm | 4.47 m/s, 302° | - | - |
| 1788546014 | 33.33° C | - | - | 23.11 mm | 4.92 m/s, 295° | - | - |
| 1788545417 | 31.67° C | - | - | 23.11 mm | 4.47 m/s, 249° | - | - |
| 1788521563 | 15.56° C | - | - | 0 mm | 3.58 m/s, 284° | - | - |
| 1788520966 | 15.56° C | - | - | 0 mm | 3.13 m/s, 298° | - | - |
| 1788520369 | 16.11° C | - | - | 0 mm | 3.58 m/s, 248° | - | - |
| 1788519769 | 15.56° C | - | - | 0 mm | 4.02 m/s, 224° | - | - |
| 1788519172 | 16.67° C | - | - | 0 mm | 4.47 m/s, 245° | - | - |
| 1788518575 | 16.11° C | - | - | 0 mm | 2.68 m/s, 294° | - | - |
| 1788517978 | 15.56° C | - | - | 0 mm | 2.24 m/s, 319° | - | - |
| 1788517381 | 15.56° C | - | - | 0 mm | 1.79 m/s, 315° | - | - |
| 1788516784 | 15° C | - | - | 0 mm | 0.45 m/s, 298° | - | - |
| 1788516184 | 14.44° C | - | - | 0 mm | 0 m/s | - | - |
| 1788515587 | 13.33° C | - | - | 0 mm | 0 m/s | - | - |
| 1788514990 | 13.33° C | - | - | 0 mm | 0 m/s | - | - |
| 1788470865 | 30.56° C | - | - | 7.11 mm | 5.36 m/s, 152° | - | - |
| 1788470268 | 27.22° C | - | - | 12.7 mm | 5.81 m/s, 159° | - | - |
| 1788469667 | 27.22° C | - | - | 12.7 mm | 7.6 m/s, 179° | - | - |
| 1788469070 | 30° C | - | - | 12.7 mm | 3.13 m/s, 211° | - | - |
| 1788467876 | 28.33° C | - | - | 12.7 mm | 3.58 m/s, 233° | - | - |
| 1788466081 | 29.44° C | - | - | 15.75 mm | 6.71 m/s, 217° | - | - |
| 1788465484 | 28.89° C | - | - | 15.75 mm | 6.26 m/s, 218° | - | - |
| 1788464291 | 28.89° C | - | - | 15.75 mm | 8.05 m/s, 250° | - | - |
* Rain latest hour (hover to see other rain measurements)
** Current wind speed in m/s (hover to see current wind gust speed)